Погода в Междуречье

Россия / Калининградская область     54°37′28″N   21°31′10″E
темп.,
°C
ветер,
м/с
пор.,
м/с
влажн.,
%
обл.,
%
осадки,
мм/ч
давл.,
гПа
погр.,
м
28 сентября, вт
вт2823:00+8вюв311865 0.0 1026292
02:00+7вюв310915 0.0 1026237
05:00+6вюв310925 0.0 1026243
08:00+8юв411808 0.0 1026335
11:00+13юв57565 0.0 1027997
14:00+16юв57495 0.0 10261324
17:00+14юв475698 0.0 1026612
20:00+10юв41171100 0.0 1027377
29 сентября, ср
ср2923:00+9юв41274100 0.0 1028327
02:00+8юв4118046 0.0 1029259
05:00+6юв310875 0.0 1028214
08:00+8юв411775 0.0 1028327
11:00+14юв69545 0.0 10281026
14:00+16юв684623 0.0 10261652
17:00+15юв69555 0.0 10251240
20:00+11вюв6146671 0.0 1025653
30 сентября, чт
чт3023:00+10юв6157010 0.0 1025587
02:00+9юв6157262 0.0 1024543
05:00+10юв61470100 0.0 1023565
08:00+9ююв61277100 0.3 1023618
11:00+8ююв5992100 1.8 1025386
14:00+9ю3795100 3.9 1025259
17:00+11ююв3694100 0.4 1025207
20:00+9ююз3692100 0.4 1027105
1 октября, пт
пт123:00+7ююз358227 0.0 102888
02:00+6ююз23866 0.0 102843
05:00+6ююз23894 0.0 102840
08:00+7ю26850 0.0 1029138
11:00+13ю465912 0.0 1028581
14:00+15ю564553 0.0 10261289
17:00+14ююв475410 0.0 1025325
20:00+9ююв31069100 0.0 1025194
2 октября, сб
сб223:00+10ююв41290100 0.0 1023331
02:00+9ююв41281100 0.0 1021298
05:00+9ююв4128588 0.0 1020327
08:00+10ююв5148467 0.0 1018407
11:00+16ю6136497 0.0 1017920
14:00+19ю61155100 0.0 10161354
17:00+18ю51157100 0.0 1016946
20:00+14ю51275100 0.0 1016351